KD8YBJ Weather Reports


time (UTC)temp
C
wind
direction
speed
KPH
gust
KPH
rain 1hr
cm
rain 24hr
cm
rain mn
cm
humidity
%
barometer
mb
20260509101038 11 201 11.3 14.5 0.00 0.00 0.00 84 1001.5
20260509100018 11 210 14.5 20.9 0.00 0.00 0.00 84 1001.6
20260509095018 11 195 12.9 20.9 0.00 0.00 0.00 85 1001.7
20260509094018 11 207 11.3 20.9 0.00 0.00 0.00 86 1001.9
20260509093018 11 206 12.9 22.5 0.00 0.00 0.00 85 1002.0
20260509092018 11 207 14.5 20.9 0.00 0.00 0.00 86 1002.2
20260509091018 11 206 12.9 20.9 0.00 0.00 0.00 86 1002.3
20260509090039 11 197 11.3 19.3 0.00 0.00 0.00 86 1002.4
20260509085019 12 214 11.3 17.7 0.00 0.00 0.00 85 1002.4
20260509084059 12 228 14.5 24.1 0.00 0.00 0.00 84 1002.4
20260509083039 12 218 11.3 17.7 0.00 0.00 0.00 84 1002.6
20260509082019 12 219 11.3 17.7 0.00 0.00 0.00 83 1002.7
20260509081019 12 229 11.3 19.3 0.00 0.00 0.00 82 1002.8
20260509080020 12 216 8.0 14.5 0.00 0.00 0.00 82 1002.8
20260509075019 12 218 9.7 16.1 0.00 0.00 0.00 80 1003.0
20260509074020 12 213 8.0 12.9 0.00 0.00 0.00 81 1003.1
20260509073040 12 219 8.0 12.9 0.00 0.00 0.00 82 1003.1
20260509072020 12 220 9.7 17.7 0.00 0.00 0.00 82 1003.3
20260509071020 12 220 11.3 17.7 0.00 0.00 0.00 81 1003.5
20260509070022 12 207 9.7 14.5 0.00 0.00 0.00 79 1003.6
20260509065020 12 211 9.7 19.3 0.00 0.00 0.00 78 1003.8
20260509064041 13 205 9.7 19.3 0.00 0.00 0.00 77 1003.9
20260509063021 13 220 9.7 17.7 0.00 0.00 0.00 74 1003.9
20260509062041 12 207 6.4 11.3 0.00 0.00 0.00 68 1003.9
20260509061022 12 201 4.8 8.0 0.00 0.00 0.00 60 1004.3
20260509060021 11 176 3.2 4.8 0.00 0.00 0.00 55 1004.4
20260509055021 11 194 4.8 6.4 0.00 0.00 0.00 54 1004.5
20260509054022 11 185 3.2 6.4 0.00 0.00 0.00 53 1004.6
20260509053023 11 160 3.2 6.4 0.00 0.00 0.00 53 1004.6
20260509052021 11 185 1.6 4.8 0.00 0.00 0.00 54 1004.6
20260509051022 11 49 0.0 3.2 0.00 0.00 0.00 54 1004.6
20260509050024 11 204 0.0 1.6 0.00 0.00 0.00 51 1004.7
20260509045022 11 196 3.2 4.8 0.00 0.00 0.00 50 1004.7
20260509044022 10 193 3.2 4.8 0.00 0.00 0.00 49 1004.7
20260509043022 10 195 1.6 3.2 0.00 0.00 0.00 50 1004.8
20260509042022 10 220 1.6 3.2 0.00 0.00 0.00 49 1004.9
20260509041022 10 188 0.0 1.6 0.00 0.00 0.00 50 1005.1
20260509040023 10 231 0.0 0.0 0.00 0.00 0.00 49 1005.3
20260509035023 10 208 0.0 3.2 0.00 0.00 0.00 48 1005.4
20260509034023 10 0.0 0.0 0.00 0.00 0.00 45 1005.6
20260509033023 11 255 0.0 0.0 0.00 0.00 0.00 44 1005.6
20260509032045 11 198 0.0 3.2 0.00 0.00 0.00 41 1005.7
20260509031024 11 188 1.6 4.8 0.00 0.00 0.00 41 1005.8
20260509030024 11 196 1.6 4.8 0.00 0.00 0.00 39 1005.9
20260509025024 11 202 1.6 3.2 0.00 0.00 0.00 40 1005.9
20260509024025 11 194 0.0 3.2 0.00 0.00 0.00 38 1006.0
20260509023025 11 193 1.6 3.2 0.00 0.00 0.00 37 1006.1
20260509022024 12 188 1.6 4.8 0.00 0.00 0.00 37 1006.2
20260509021026 12 183 3.2 4.8 0.00 0.00 0.00 37 1006.3
20260509020025 12 194 3.2 4.8 0.00 0.00 0.00 37 1006.3
20260509015025 12 213 1.6 4.8 0.00 0.00 0.00 38 1006.3
20260509014041 12 213 1.6 3.2 0.00 0.00 0.00 35 1006.0
20260509013045 12 218 1.6 3.2 0.00 0.00 0.00 35 1006.0
20260509012045 12 237 1.6 3.2 0.00 0.00 0.00 37 1006.0
20260509011026 12 206 0.0 1.6 0.00 0.00 0.00 36 1006.1
20260509010026 13 238 0.0 1.6 0.00 0.00 0.00 34 1006.1
20260509005026 13 242 0.0 1.6 0.00 0.00 0.00 35 1006.0
20260509004027 14 0.0 0.0 0.00 0.00 0.00 32 1006.0
20260509003018 14 229 0.0 1.6 0.00 0.00 0.00 30 1006.1
20260509002018 15 196 1.6 4.8 0.00 0.00 0.00 29 1006.1
20260509001016 15 185 4.8 8.0 0.00 0.00 0.00 27 1006.2
20260509000015 15 193 3.2 4.8 0.00 0.00 0.00 28 1006.3
20260508235015 15 190 6.4 11.3 0.00 0.00 0.00 27 1006.4
20260508234016 15 188 4.8 8.0 0.00 0.00 0.00 28 1006.6
20260508233036 15 215 6.4 16.1 0.00 0.00 0.00 28 1006.7
20260508232016 16 194 4.8 8.0 0.00 0.00 0.00 28 1006.7
20260508231016 16 207 4.8 11.3 0.00 0.00 0.00 29 1006.7
20260508230018 16 223 6.4 12.9 0.00 0.00 0.00 29 1006.9
20260508225017 16 211 8.0 12.9 0.00 0.00 0.00 29 1006.9
20260508224017 16 220 6.4 12.9 0.00 0.00 0.00 29 1006.9
20260508223017 16 200 8.0 11.3 0.00 0.00 0.00 29 1007.0
20260508222017 16 213 6.4 14.5 0.00 0.00 0.00 30 1007.2
20260508221017 15 220 8.0 14.5 0.00 0.00 0.00 31 1007.3
20260508220017 15 217 9.7 16.1 0.00 0.00 0.00 30 1007.4
20260508215019 15 226 9.7 16.1 0.00 0.00 0.00 30 1007.3
20260508214018 16 218 9.7 17.7 0.00 0.00 0.00 30 1007.3
20260508213018 16 212 11.3 19.3 0.00 0.00 0.00 30 1007.4
20260508212018 16 215 9.7 19.3 0.00 0.00 0.00 30 1007.4
20260508211015 16 218 9.7 16.1 0.00 0.00 0.00 30 1007.5
20260508210016 16 223 9.7 17.7 0.00 0.00 0.00 32 1007.6
20260508205015 15 214 9.7 17.7 0.00 0.00 0.00 33 1007.8
20260508204016 16 218 9.7 19.3 0.00 0.00 0.00 33 1007.9
20260508203016 15 213 8.0 14.5 0.00 0.00 0.00 36 1008.0
20260508202016 15 214 11.3 17.7 0.00 0.00 0.00 35 1008.1
20260508201016 15 212 11.3 19.3 0.00 0.00 0.00 37 1008.2
20260508200016 15 208 9.7 16.1 0.00 0.00 0.00 36 1008.3
20260508195017 15 204 8.0 14.5 0.00 0.00 0.00 37 1008.4
20260508194017 15 211 11.3 20.9 0.00 0.00 0.00 37 1008.6
20260508193019 14 209 12.9 19.3 0.00 0.00 0.00 39 1008.8
20260508192017 15 210 12.9 19.3 0.00 0.00 0.00 37 1008.8
20260508191019 15 222 8.0 14.5 0.00 0.00 0.00 38 1008.7
20260508190017 15 223 9.7 16.1 0.00 0.00 0.00 42 1008.8
20260508185017 14 208 12.9 19.3 0.00 0.00 0.00 40 1008.9
20260508184018 14 222 9.7 20.9 0.00 0.00 0.00 45 1008.9
20260508183038 14 208 9.7 16.1 0.00 0.00 0.00 42 1009.1
20260508182018 15 215 9.7 16.1 0.00 0.00 0.00 37 1009.2
20260508181015 15 211 11.3 19.3 0.00 0.00 0.00 37 1009.3
20260508180037 15 217 8.0 17.7 0.00 0.00 0.00 37 1009.4
20260508175015 15 219 9.7 17.7 0.00 0.00 0.00 34 1009.5
20260508174015 15 209 11.3 16.1 0.00 0.00 0.00 32 1009.6
20260508173016 14 212 8.0 16.1 0.00 0.00 0.00 37 1009.8
20260508172017 15 221 9.7 14.5 0.00 0.00 0.00 34 1009.9
20260508171016 15 215 12.9 20.9 0.00 0.00 0.00 33 1009.9
20260508170016 15 213 11.3 19.3 0.00 0.00 0.00 35 1010.0
20260508165016 15 209 9.7 17.7 0.00 0.00 0.00 38 1010.2
20260508164038 15 212 11.3 19.3 0.00 0.00 0.00 36 1010.3
20260508163019 14 212 11.3 17.7 0.00 0.00 0.00 38 1010.3
20260508162017 13 211 9.7 19.3 0.00 0.00 0.00 40 1010.2
20260508161017 13 223 9.7 17.7 0.00 0.00 0.00 40 1010.0
20260508160017 13 209 9.7 17.7 0.00 0.00 0.00 40 1010.2
20260508155017 13 216 9.7 19.3 0.00 0.00 0.00 45 1010.5
20260508154017 13 213 6.4 12.9 0.00 0.00 0.00 50 1010.6
20260508153018 13 212 8.0 14.5 0.00 0.00 0.00 53 1010.5
20260508152018 12 182 6.4 16.1 0.00 0.00 0.00 60 1010.4
20260508151018 12 199 6.4 12.9 0.00 0.00 0.00 65 1010.4
20260508150015 12 217 9.7 16.1 0.00 0.00 0.00 68 1010.5
20260508145015 12 212 9.7 19.3 0.00 0.00 0.00 67 1010.8
20260508144015 11 193 8.0 16.1 0.00 0.00 0.00 67 1010.5
20260508143035 11 212 6.4 12.9 0.00 0.00 0.00 70 1010.6
20260508142016 11 209 8.0 14.5 0.00 0.00 0.00 69 1010.7
20260508141016 11 217 6.4 12.9 0.00 0.00 0.00 69 1010.3
20260508140017 11 208 6.4 12.9 0.00 0.00 0.00 67 1010.5
20260508135057 11 190 6.4 12.9 0.00 0.00 0.00 67 1010.7
20260508134017 10 228 6.4 11.3 0.00 0.00 0.00 70 1010.6
20260508133017 10 219 8.0 14.5 0.00 0.00 0.00 70 1010.6
20260508132017 9 215 4.8 9.7 0.00 0.00 0.00 72 1010.7
20260508131039 8 216 4.8 8.0 0.00 0.00 0.00 73 1010.8
20260508130017 8 211 4.8 8.0 0.00 0.00 0.00 75 1010.8
20260508125018 7 235 4.8 8.0 0.00 0.00 0.00 77 1010.9
20260508124040 6 238 4.8 6.4 0.00 0.00 0.00 82 1010.9
20260508123016 5 235 3.2 6.4 0.00 0.00 0.00 90 1010.8
20260508122021 4 222 1.6 3.2 0.00 0.00 0.00 96 1010.8
20260508121015 3 218 1.6 3.2 0.00 0.00 0.00 97 1010.9
20260508120015 2 273 0.0 3.2 0.00 0.00 0.00 97 1010.9
20260508115016 2 269 0.0 1.6 0.00 0.00 0.00 97 1010.9
20260508114016 1 320 0.0 3.2 0.00 0.00 0.00 96 1010.8
20260508113016 1 0.0 0.0 0.00 0.00 0.00 96 1010.8
20260508112016 0 260 0.0 1.6 0.00 0.00 0.00 96 1010.9
20260508111016 0 0.0 0.0 0.00 0.00 0.00 96 1011.0
20260508110016 0 295 0.0 1.6 0.00 0.00 0.00 96 1011.0
20260508105017 0 212 0.0 1.6 0.00 0.00 0.00 96 1010.9
20260508104017 0 0.0 0.0 0.00 0.00 0.00 95 1010.8
20260508103018 0 14 0.0 1.6 0.00 0.00 0.00 95 1010.9
20260508102017 0 10 0.0 0.0 0.00 0.00 0.00 95 1010.9